User: anonymous   Login
Location: Key Biscayne
(25.6930°N, 80.1630°W)
Time: 23:38:06
(UTC-05:00)
Language:

CZ-2D R/B - Orbit

View from above orbital plane
View from above orbital plane
View from above satellite
View from above satellite

Ground track
Ground track

The orbit data is extracted from the following two-line orbital elements,

1 28738U 05024B   16043.73982236  .00002036  00000-0  12834-3 0  9995
2 28738  97.5580  82.5931 0011000 247.4362 112.5704 15.10216840581767
Epoch (UTC): 12 February 2016 17:45:20
Eccentricity: 0.0011000
inclination: 97.5580°
perigee height: 528 km
apogee height: 543 km
right ascension of ascending node: 82.5931°
argument of perigee: 247.4362°
revolutions per day: 15.10216840
mean anomaly at epoch: 112.5704°
orbit number at epoch: 58176

The dashed part of the orbit path shows where the satellite is in the earth's shadow,  

DLR